| time (UTC) | temp F | wind direction | speed MPH | gust MPH | rain 1hr in | rain 24hr in | rain mn in | humidity % | barometer mb |
| 20260505022056 | 74 | 302 | 0.0 | 1.0 | 0.00 | 0.00 | 0.00 | 48 | 1008.2 |
| 20260505021614 | 74 | 291 | 0.0 | 0.0 | 0.00 | 0.00 | 0.00 | 47 | 1008.2 |
| 20260505021058 | 75 | 304 | 0.0 | 0.0 | 0.00 | 0.00 | 0.00 | 45 | 1008.2 |
| 20260505020611 | 75 | 205 | 0.0 | 1.0 | 0.00 | 0.00 | 0.00 | 45 | 1008.3 |
| 20260505015605 | 75 | 218 | 0.0 | 2.0 | 0.00 | 0.00 | 0.00 | 44 | 1008.3 |
| 20260505015056 | 75 | 217 | 0.0 | 4.0 | 0.00 | 0.00 | 0.00 | 43 | 1008.3 |
| 20260505014559 | 75 | 267 | 0.0 | 4.0 | 0.00 | 0.00 | 0.00 | 42 | 1008.3 |
| 20260505014058 | 76 | 277 | 0.0 | 2.0 | 0.00 | 0.00 | 0.00 | 41 | 1008.3 |
| 20260505013601 | 76 | 306 | 0.0 | 4.0 | 0.00 | 0.00 | 0.00 | 41 | 1008.3 |
| 20260505013445 | 76 | 298 | 0.0 | 4.0 | 0.00 | 0.00 | 0.00 | 39 | 1008.3 |
| 20260505012606 | 76 | 207 | 0.0 | 4.0 | 0.00 | 0.00 | 0.00 | 37 | 1008.2 |
| 20260505012557 | 76 | 294 | 0.0 | 4.0 | 0.00 | 0.00 | 0.00 | 38 | 1008.3 |
| 20260505011618 | 76 | 252 | 0.0 | 2.0 | 0.00 | 0.00 | 0.00 | 38 | 1008.3 |
| 20260505011604 | 76 | 246 | 0.0 | 3.0 | 0.00 | 0.00 | 0.00 | 38 | 1008.2 |
| 20260505010555 | 77 | 291 | 0.0 | 3.0 | 0.00 | 0.00 | 0.00 | 36 | 1008.3 |
| 20260505010118 | 77 | 196 | 0.0 | 7.0 | 0.00 | 0.00 | 0.00 | 34 | 1008.4 |
| 20260505005554 | 77 | 212 | 0.0 | 7.0 | 0.00 | 0.00 | 0.00 | 34 | 1008.4 |
| 20260505005112 | 77 | 253 | 0.0 | 5.0 | 0.00 | 0.00 | 0.00 | 33 | 1008.4 |
| 20260505004554 | 77 | 310 | 0.0 | 5.0 | 0.00 | 0.00 | 0.00 | 33 | 1008.4 |
| 20260505004107 | 78 | 309 | 0.0 | 1.0 | 0.00 | 0.00 | 0.00 | 34 | 1008.3 |
| 20260505003554 | 77 | 283 | 0.0 | 4.0 | 0.00 | 0.00 | 0.00 | 35 | 1008.4 |
| 20260505003059 | 77 | 292 | 0.0 | 4.0 | 0.00 | 0.00 | 0.00 | 34 | 1008.3 |
| 20260505002555 | 77 | 292 | 1.0 | 7.0 | 0.00 | 0.00 | 0.00 | 34 | 1008.4 |
| 20260505002055 | 77 | 307 | 1.0 | 7.0 | 0.00 | 0.00 | 0.00 | 32 | 1008.3 |
| 20260505001630 | 78 | 298 | 0.0 | 5.0 | 0.00 | 0.00 | 0.00 | 33 | 1008.4 |
| 20260505001051 | 78 | 275 | 0.0 | 5.0 | 0.00 | 0.00 | 0.00 | 33 | 1008.3 |
| 20260505000629 | 78 | 205 | 0.0 | 4.0 | 0.00 | 0.00 | 0.00 | 32 | 1008.4 |
| 20260505000058 | 78 | 292 | 0.0 | 4.0 | 0.00 | 0.00 | 0.00 | 33 | 1008.4 |
| 20260504235618 | 78 | 316 | 0.0 | 2.0 | 0.00 | 0.00 | 0.00 | 33 | 1008.4 |
| 20260504235050 | 78 | 313 | 0.0 | 5.0 | 0.00 | 0.00 | 0.00 | 35 | 1008.4 |
| 20260504234921 | 78 | 300 | 0.0 | 5.0 | 0.00 | 0.00 | 0.00 | 32 | 1008.5 |
| 20260504234518 | 78 | 224 | 0.0 | 2.0 | 0.00 | 0.00 | 0.00 | 33 | 1008.5 |
| 20260504233606 | 77 | 299 | 0.0 | 7.0 | 0.00 | 0.00 | 0.00 | 34 | 1008.5 |
| 20260504233050 | 77 | 300 | 0.0 | 7.0 | 0.00 | 0.00 | 0.00 | 35 | 1008.5 |
| 20260504233012 | 78 | 259 | 0.0 | 4.0 | 0.00 | 0.00 | 0.00 | 32 | 1008.4 |
| 20260504232049 | 78 | 272 | 0.0 | 4.0 | 0.00 | 0.00 | 0.00 | 37 | 1008.4 |
| 20260504231559 | 78 | 291 | 0.0 | 4.0 | 0.00 | 0.00 | 0.00 | 35 | 1008.4 |
| 20260504231048 | 77 | 302 | 0.0 | 9.0 | 0.00 | 0.00 | 0.00 | 35 | 1008.4 |
| 20260504230552 | 77 | 53 | 0.0 | 9.0 | 0.00 | 0.00 | 0.00 | 35 | 1008.6 |
| 20260504230240 | 77 | 279 | 1.0 | 7.0 | 0.00 | 0.00 | 0.00 | 34 | 1008.6 |
| 20260504230151 | 77 | 301 | 0.0 | 6.0 | 0.00 | 0.00 | 0.00 | 35 | 1008.6 |
| 20260504225121 | 77 | 285 | 0.0 | 7.0 | 0.00 | 0.00 | 0.00 | 34 | 1008.7 |
| 20260504224548 | 77 | 252 | 0.0 | 5.0 | 0.00 | 0.00 | 0.00 | 37 | 1008.8 |
| 20260504224541 | 76 | 278 | 0.0 | 4.0 | 0.00 | 0.00 | 0.00 | 37 | 1008.8 |
| 20260504223543 | 76 | 293 | 0.0 | 5.0 | 0.00 | 0.00 | 0.00 | 37 | 1008.9 |
| 20260504223112 | 77 | 321 | 1.0 | 7.0 | 0.00 | 0.00 | 0.00 | 36 | 1008.9 |
| 20260504222541 | 77 | 338 | 1.0 | 7.0 | 0.00 | 0.00 | 0.00 | 37 | 1008.9 |
| 20260504222104 | 77 | 298 | 0.0 | 4.0 | 0.00 | 0.00 | 0.00 | 35 | 1008.9 |
| 20260504221541 | 77 | 309 | 1.0 | 8.0 | 0.00 | 0.00 | 0.00 | 37 | 1009.0 |
| 20260504221100 | 77 | 296 | 1.0 | 8.0 | 0.00 | 0.00 | 0.00 | 38 | 1009.1 |
| 20260504220934 | 77 | 289 | 1.0 | 9.0 | 0.00 | 0.00 | 0.00 | 38 | 1009.0 |
| 20260504220108 | 77 | 304 | 0.0 | 9.0 | 0.00 | 0.00 | 0.00 | 37 | 1009.1 |
| 20260504215933 | 77 | 305 | 0.0 | 7.0 | 0.00 | 0.00 | 0.00 | 41 | 1009.1 |
| 20260504215048 | 77 | 273 | 1.0 | 10.0 | 0.00 | 0.00 | 0.00 | 42 | 1009.1 |
| 20260504214932 | 76 | 284 | 1.0 | 10.0 | 0.00 | 0.00 | 0.00 | 41 | 1009.1 |
| 20260504214337 | 76 | 275 | 1.0 | 5.0 | 0.00 | 0.00 | 0.00 | 41 | 1009.1 |
| 20260504213617 | 76 | 306 | 1.0 | 7.0 | 0.00 | 0.00 | 0.00 | 44 | 1009.1 |
| 20260504213326 | 76 | 247 | 1.0 | 7.0 | 0.00 | 0.00 | 0.00 | 41 | 1009.0 |
| 20260504212721 | 76 | 303 | 0.0 | 6.0 | 0.00 | 0.00 | 0.00 | 44 | 1009.1 |
| 20260504212709 | 76 | 296 | 0.0 | 7.0 | 0.00 | 0.00 | 0.00 | 42 | 1009.1 |
| 20260504212701 | 76 | 290 | 1.0 | 8.0 | 0.00 | 0.00 | 0.00 | 43 | 1009.1 |
| 20260504212616 | 76 | 300 | 1.0 | 8.0 | 0.00 | 0.00 | 0.00 | 44 | 1009.2 |
| 20260504211646 | 76 | 255 | 1.0 | 7.0 | 0.00 | 0.00 | 0.00 | 42 | 1009.1 |
| 20260504210033 | 76 | 263 | 0.0 | 6.0 | 0.00 | 0.00 | 0.00 | 43 | 1009.2 |
| 20260504205854 | 76 | 297 | 0.0 | 5.0 | 0.00 | 0.00 | 0.00 | 45 | 1009.2 |
| 20260504205035 | 76 | 250 | 0.0 | 5.0 | 0.00 | 0.00 | 0.00 | 43 | 1009.3 |
| 20260504204544 | 76 | 215 | 0.0 | 5.0 | 0.00 | 0.00 | 0.00 | 43 | 1009.2 |
| 20260504204035 | 75 | 191 | 0.0 | 7.0 | 0.00 | 0.00 | 0.00 | 43 | 1009.3 |
| 20260504203540 | 75 | 273 | 0.0 | 7.0 | 0.00 | 0.00 | 0.00 | 44 | 1009.3 |
| 20260504203114 | 76 | 320 | 0.0 | 5.0 | 0.00 | 0.00 | 0.00 | 43 | 1009.3 |
| 20260504202533 | 76 | 317 | 0.0 | 2.0 | 0.00 | 0.00 | 0.00 | 46 | 1009.2 |
| 20260504202108 | 75 | 248 | 0.0 | 4.0 | 0.00 | 0.00 | 0.00 | 41 | 1009.2 |
| 20260504201533 | 75 | 194 | 0.0 | 4.0 | 0.00 | 0.00 | 0.00 | 42 | 1009.2 |
| 20260504201100 | 75 | 292 | 0.0 | 1.0 | 0.00 | 0.00 | 0.00 | 46 | 1009.3 |
| 20260504200535 | 75 | 223 | 0.0 | 3.0 | 0.00 | 0.00 | 0.00 | 43 | 1009.3 |
| 20260504200105 | 75 | 292 | 0.0 | 3.0 | 0.00 | 0.00 | 0.00 | 44 | 1009.3 |
| 20260504195533 | 74 | 205 | 0.0 | 6.0 | 0.00 | 0.00 | 0.00 | 44 | 1009.4 |
| 20260504195046 | 74 | 313 | 0.0 | 6.0 | 0.00 | 0.00 | 0.00 | 46 | 1009.4 |
| 20260504194534 | 74 | 203 | 0.0 | 4.0 | 0.00 | 0.00 | 0.00 | 43 | 1009.5 |
| 20260504194346 | 74 | 199 | 0.0 | 3.0 | 0.00 | 0.00 | 0.00 | 45 | 1009.5 |
| 20260504193533 | 74 | 306 | 0.0 | 3.0 | 0.00 | 0.00 | 0.00 | 46 | 1009.5 |
| 20260504193035 | 74 | 204 | 0.0 | 1.0 | 0.00 | 0.00 | 0.00 | 45 | 1009.5 |
| 20260504192613 | 74 | 298 | 0.0 | 4.0 | 0.00 | 0.00 | 0.00 | 47 | 1009.6 |
| 20260504192034 | 74 | 295 | 0.0 | 4.0 | 0.00 | 0.00 | 0.00 | 49 | 1009.7 |
| 20260504191916 | 74 | 313 | 0.0 | 3.0 | 0.00 | 0.00 | 0.00 | 47 | 1009.7 |
| 20260504191432 | 73 | 256 | 0.0 | 3.0 | 0.00 | 0.00 | 0.00 | 47 | 1009.7 |
| 20260504190605 | 73 | 301 | 0.0 | 3.0 | 0.00 | 0.00 | 0.00 | 47 | 1009.7 |
| 20260504190033 | 73 | 212 | 0.0 | 0.0 | 0.00 | 0.00 | 0.00 | 45 | 1009.6 |
| 20260504185559 | 73 | 155 | 0.0 | 0.0 | 0.00 | 0.00 | 0.00 | 45 | 1009.7 |
| 20260504185028 | 73 | 207 | 0.0 | 1.0 | 0.00 | 0.00 | 0.00 | 48 | 1009.8 |
| 20260504184555 | 72 | 184 | 0.0 | 5.0 | 0.00 | 0.00 | 0.00 | 47 | 1009.8 |
| 20260504184031 | 72 | 261 | 0.0 | 5.0 | 0.00 | 0.00 | 0.00 | 45 | 1009.8 |
| 20260504183846 | 72 | 211 | 0.0 | 4.0 | 0.00 | 0.00 | 0.00 | 46 | 1009.8 |
| 20260504183029 | 72 | 302 | 0.0 | 4.0 | 0.00 | 0.00 | 0.00 | 47 | 1010.0 |
| 20260504182543 | 72 | 277 | 0.0 | 3.0 | 0.00 | 0.00 | 0.00 | 50 | 1010.0 |
| 20260504182028 | 71 | 256 | 0.0 | 3.0 | 0.00 | 0.00 | 0.00 | 47 | 1010.1 |
| 20260504181832 | 71 | 211 | 0.0 | 0.0 | 0.00 | 0.00 | 0.00 | 47 | 1010.0 |
| 20260504181428 | 71 | 202 | 0.0 | 1.0 | 0.00 | 0.00 | 0.00 | 47 | 1010.1 |
| 20260504180531 | 71 | 215 | 0.0 | 2.0 | 0.00 | 0.00 | 0.00 | 46 | 1010.1 |
| 20260504180023 | 71 | 194 | 0.0 | 2.0 | 0.00 | 0.00 | 0.00 | 45 | 1010.1 |
| 20260504175523 | 70 | 287 | 0.0 | 0.0 | 0.00 | 0.00 | 0.00 | 47 | 1010.1 |
| 20260504175101 | 70 | 205 | 0.0 | 0.0 | 0.00 | 0.00 | 0.00 | 46 | 1010.0 |
| 20260504174521 | 70 | 190 | 0.0 | 0.0 | 0.00 | 0.00 | 0.00 | 47 | 1010.1 |
| 20260504174108 | 70 | 284 | 0.0 | 0.0 | 0.00 | 0.00 | 0.00 | 45 | 1010.0 |
| 20260504173521 | 70 | 303 | 0.0 | 0.0 | 0.00 | 0.00 | 0.00 | 50 | 1010.0 |
| 20260504173046 | 70 | 193 | 0.0 | 0.0 | 0.00 | 0.00 | 0.00 | 47 | 1010.0 |
| 20260504172523 | 70 | 142 | 0.0 | 0.0 | 0.00 | 0.00 | 0.00 | 49 | 1010.0 |
| 20260504172338 | 69 | 142 | 0.0 | 0.0 | 0.00 | 0.00 | 0.00 | 49 | 1010.0 |
| 20260504171519 | 68 | 211 | 0.0 | 0.0 | 0.00 | 0.00 | 0.00 | 50 | 1010.0 |
| 20260504171038 | 68 | 208 | 0.0 | 0.0 | 0.00 | 0.00 | 0.00 | 49 | 1010.0 |
| 20260504170520 | 68 | 208 | 0.0 | 0.0 | 0.00 | 0.00 | 0.00 | 49 | 1010.0 |
| 20260504151012 | 64 | 123 | 0.0 | 0.0 | 0.00 | 0.00 | 0.00 | 58 | 1009.3 |
| 20260504150511 | 63 | 123 | 0.0 | 0.0 | 0.00 | 0.00 | 0.00 | 60 | 1009.3 |
| 20260504141020 | 57 | 123 | 0.0 | 0.0 | 0.00 | 0.00 | 0.00 | 68 | 1008.9 |
| 20260504140901 | 57 | 123 | 0.0 | 0.0 | 0.00 | 0.00 | 0.00 | 70 | 1008.9 |
| 20260504130820 | 59 | 123 | 0.0 | 0.0 | 0.00 | 0.00 | 0.00 | 59 | 1008.2 |
| 20260504110538 | 57 | 114 | 0.0 | 0.0 | 0.00 | 0.00 | 0.00 | 63 | 1008.3 |
| 20260504100505 | 60 | 114 | 0.0 | 0.0 | 0.00 | 0.00 | 0.00 | 62 | 1008.2 |
| 20260504081945 | 61 | 109 | 0.0 | 0.0 | 0.00 | 0.00 | 0.00 | 63 | 1008.3 |
| 20260504081515 | 61 | 109 | 0.0 | 0.0 | 0.00 | 0.00 | 0.00 | 63 | 1008.3 |
| 20260504080945 | 61 | 83 | 0.0 | 0.0 | 0.00 | 0.00 | 0.00 | 64 | 1008.3 |
| 20260504080509 | 61 | 82 | 0.0 | 0.0 | 0.00 | 0.00 | 0.00 | 64 | 1008.3 |
| 20260504080332 | 60 | 82 | 0.0 | 0.0 | 0.00 | 0.00 | 0.00 | 65 | 1008.3 |
| 20260504050442 | 66 | 307 | 0.0 | 0.0 | 0.00 | 0.00 | 0.00 | 61 | 1008.3 |
| 20260504050016 | 67 | 307 | 0.0 | 0.0 | 0.00 | 0.00 | 0.00 | 60 | 1008.3 |
| 20260504045728 | 67 | 307 | 0.0 | 0.0 | 0.00 | 0.00 | 0.00 | 59 | 1008.4 |
| 20260504045010 | 68 | 306 | 0.0 | 0.0 | 0.00 | 0.00 | 0.00 | 58 | 1008.3 |
| 20260504044436 | 68 | 306 | 0.0 | 0.0 | 0.00 | 0.00 | 0.00 | 57 | 1008.3 |
| 20260504044007 | 68 | 321 | 0.0 | 0.0 | 0.00 | 0.00 | 0.00 | 57 | 1008.2 |
| 20260504043438 | 69 | 294 | 0.0 | 0.0 | 0.00 | 0.00 | 0.00 | 57 | 1008.2 |
| 20260504042959 | 69 | 322 | 0.0 | 0.0 | 0.00 | 0.00 | 0.00 | 56 | 1008.2 |
| 20260504042834 | 69 | 303 | 0.0 | 0.0 | 0.00 | 0.00 | 0.00 | 56 | 1008.2 |
| 20260504041953 | 69 | 303 | 0.0 | 0.0 | 0.00 | 0.00 | 0.00 | 56 | 1008.2 |
| 20260504041832 | 69 | 304 | 0.0 | 0.0 | 0.00 | 0.00 | 0.00 | 55 | 1008.0 |
| 20260504041525 | 69 | 304 | 0.0 | 0.0 | 0.00 | 0.00 | 0.00 | 55 | 1008.1 |
| 20260504040825 | 70 | 304 | 0.0 | 0.0 | 0.00 | 0.00 | 0.00 | 54 | 1008.1 |
| 20260504040221 | 71 | 304 | 0.0 | 0.0 | 0.00 | 0.00 | 0.00 | 53 | 1008.0 |
| 20260504040036 | 70 | 304 | 0.0 | 0.0 | 0.00 | 0.00 | 0.00 | 53 | 1008.1 |
| 20260504034941 | 71 | 302 | 0.0 | 0.0 | 0.00 | 0.00 | 0.00 | 52 | 1008.0 |
| 20260504034434 | 71 | 302 | 0.0 | 0.0 | 0.00 | 0.00 | 0.00 | 51 | 1008.0 |
| 20260504033934 | 72 | 304 | 0.0 | 0.0 | 0.00 | 0.00 | 0.00 | 51 | 1008.0 |
| 20260504033814 | 72 | 304 | 0.0 | 0.0 | 0.00 | 0.00 | 0.00 | 50 | 1007.9 |
| 20260504032934 | 73 | 305 | 0.0 | 0.0 | 0.00 | 0.00 | 0.00 | 50 | 1008.0 |
| 20260504032506 | 73 | 303 | 0.0 | 0.0 | 0.00 | 0.00 | 0.00 | 49 | 1007.9 |
| 20260504032333 | 73 | 292 | 0.0 | 0.0 | 0.00 | 0.00 | 0.00 | 48 | 1008.0 |
| 20260504031501 | 74 | 306 | 0.0 | 1.0 | 0.00 | 0.00 | 0.00 | 47 | 1007.9 |
| 20260504030931 | 74 | 319 | 0.0 | 1.0 | 0.00 | 0.00 | 0.00 | 46 | 1007.9 |
| 20260504030457 | 75 | 309 | 0.0 | 2.0 | 0.00 | 0.00 | 0.00 | 45 | 1007.8 |
| 20260504025928 | 75 | 309 | 0.0 | 2.0 | 0.00 | 0.00 | 0.00 | 44 | 1007.8 |
| 20260504025451 | 76 | 309 | 0.0 | 0.0 | 0.00 | 0.00 | 0.00 | 44 | 1007.8 |
| 20260504024928 | 77 | 325 | 0.0 | 3.0 | 0.00 | 0.00 | 0.00 | 43 | 1007.9 |
| 20260504024719 | 77 | 104 | 0.0 | 1.0 | 0.00 | 0.00 | 0.00 | 42 | 1007.8 |
| 20260504024534 | 77 | 319 | 0.0 | 3.0 | 0.00 | 0.00 | 0.00 | 43 | 1007.8 |
| 20260504023441 | 78 | 313 | 0.0 | 1.0 | 0.00 | 0.00 | 0.00 | 41 | 1007.8 |
| 20260504022926 | 78 | 315 | 0.0 | 9.0 | 0.00 | 0.00 | 0.00 | 40 | 1007.8 |
| 20260504022730 | 78 | 328 | 0.0 | 9.0 | 0.00 | 0.00 | 0.00 | 39 | 1007.8 |